Weather History for Camarillo, CA

Change the Weather History Date:

Saturday, October 20, 2012

  Actual Average Record
Temperature  
Mean Temperature 67 °F 63 °F  
Max Temperature 70 °F 73 °F 96 °F (1965)
Min Temperature 63 °F 52 °F 40 °F (1949)
Degree Days  
Heating Degree Days 0 3  
Month to date heating degree days 11 49  
Since 1 July heating degree days 46 81  
Cooling Degree Days 2 1  
Month to date cooling degree days 54 20  
Year to date cooling degree days 345 303  
Growing Degree Days 16 (Base 50)    
Moisture  
Dew Point 61 °F    
Average Humidity 87    
Maximum Humidity 100    
Minimum Humidity 73    
Precipitation  
Precipitation 0.00 in 0.02 in 0.46 in (2004)
Month to date precipitation T 0.30  
Year to date precipitation 5.72 11.52  
Since 1 July precipitation 0.04 0.54  
Sea Level Pressure  
Sea Level Pressure 29.88 in    
Wind  
Wind Speed 4 mph (West)    
Max Wind Speed 10 mph    
Max Gust Speed 15 mph    
Visibility 8 miles    
Events      
T = Trace of Precipitation, MM = Missing Value Source: NWS Daily Summary

Daily Weather History Graph

Daily Weather History Graph

Search for Another Location

Airport:

Trip Planner

Search our weather history database for the weather conditions in past years. The results will help you decide how hot, cold, wet, or windy it might be!

Date:

Astronomy

Oct. 20, 2012 Rise Set
Actual Time 7:06 AM PDT 6:15 PM PDT
Civil Twilight 6:40 AM PDT 6:40 PM PDT
Nautical Twilight 6:11 AM PDT 7:09 PM PDT
Astronomical Twilight 5:42 AM PDT 7:39 PM PDT
Moon 12:38 PM PDT (10/20) 11:13 PM PDT (10/20)
Length of Visible Light 12h 00m
Length of Day
11h 09m
Waxing Crescent, 35% of the Moon is Illuminated
Oct 20
Waxing Crescent
Oct 21
First Quarter
Oct 29
Full
Nov 6
Last Quarter
Nov 13
New

Hourly Weather History & Observations

Time (PDT) Temp. Dew Point Humidity Pressure Visibility Wind Dir Wind Speed Gust Speed Precip Events Conditions
12:55 AM 64.0 °F 61.0 °F 90% 29.91 in 8.0 mi SW 3.5 mph - N/A   Overcast
1:55 AM 64.0 °F 61.0 °F 90% 29.91 in 8.0 mi Calm Calm - N/A   Overcast
2:55 AM 64.0 °F 61.0 °F 90% 29.90 in 6.0 mi Calm Calm - N/A   Overcast
3:55 AM 64.0 °F 61.0 °F 90% 29.88 in 7.0 mi Calm Calm - N/A   Overcast
4:08 AM 64.4 °F 60.8 °F 88% 29.86 in 8.0 mi Calm Calm - N/A   Overcast
4:55 AM 64.0 °F 61.0 °F 90% 29.88 in 5.0 mi Calm Calm - N/A   Overcast
5:55 AM 63.0 °F 62.1 °F 97% 29.89 in 4.0 mi Calm Calm - N/A   Overcast
6:31 AM 64.4 °F 60.8 °F 88% 29.87 in 6.0 mi Calm Calm - N/A   Overcast
6:55 AM 64.0 °F 61.0 °F 90% 29.90 in 6.0 mi Calm Calm - N/A   Overcast
7:55 AM 64.0 °F 61.0 °F 90% 29.91 in 6.0 mi North 4.6 mph - N/A   Overcast
8:55 AM 64.9 °F 62.1 °F 90% 29.93 in 8.0 mi North 3.5 mph - N/A   Overcast
9:55 AM 66.0 °F 61.0 °F 84% 29.93 in 9.0 mi North 4.6 mph - N/A   Overcast
10:55 AM 68.0 °F 61.0 °F 78% 29.92 in 8.0 mi Calm Calm - N/A   Overcast
11:55 AM 68.0 °F 61.0 °F 78% 29.91 in 8.0 mi Calm Calm - N/A   Overcast
12:55 PM 70.0 °F 61.0 °F 73% 29.88 in 8.0 mi West 5.8 mph - N/A   Overcast
1:55 PM 68.0 °F 61.0 °F 78% 29.87 in 10.0 mi SW 4.6 mph - N/A   Overcast
2:55 PM 68.0 °F 61.0 °F 78% 29.86 in 10.0 mi SSW 6.9 mph - N/A   Overcast
3:55 PM 68.0 °F 61.0 °F 78% 29.85 in 10.0 mi SW 6.9 mph - N/A   Overcast
4:55 PM 66.9 °F 61.0 °F 81% 29.85 in 10.0 mi WSW 8.1 mph - N/A   Overcast
5:13 PM 66.2 °F 60.8 °F 83% 29.82 in 10.0 mi WSW 9.2 mph - N/A   Overcast
5:55 PM 66.9 °F 60.1 °F 79% 29.85 in 10.0 mi WSW 5.8 mph - N/A   Overcast
6:55 PM 66.0 °F 61.0 °F 84% 29.86 in 10.0 mi West 6.9 mph - N/A   Overcast
7:55 PM 64.9 °F 61.0 °F 87% 29.87 in 10.0 mi West 6.9 mph - N/A   Overcast
8:55 PM 64.9 °F 62.1 °F 90% 29.88 in 10.0 mi West 5.8 mph - N/A   Overcast
9:55 PM 64.9 °F 61.0 °F 87% 29.88 in 9.0 mi West 4.6 mph - N/A   Overcast
10:52 PM 64.4 °F 60.8 °F 88% 29.86 in 10.0 mi West 4.6 mph - N/A   Overcast
10:55 PM 64.9 °F 61.0 °F 87% 29.89 in 10.0 mi West 5.8 mph - N/A   Overcast
11:33 PM 64.4 °F 60.8 °F 88% 29.86 in 10.0 mi WNW 9.2 mph - N/A   Overcast
11:43 PM 64.4 °F 60.8 °F 88% 29.86 in 10.0 mi West 9.2 mph - N/A   Overcast
11:55 PM 64.0 °F 60.1 °F 87% 29.89 in 10.0 mi West 9.2 mph - N/A   Overcast